WB2COY Weather Reports


time (UTC)temp
C
wind
direction
speed
KPH
gust
KPH
rain 1hr
cm
rain 24hr
cm
rain mn
cm
humidity
%
barometer
mb
20260506143015 19 225 1.6 6.4 0.00 0.00 0.00 58 1008.0
20260506140019 19 0.0 4.8 0.00 0.00 0.00 57 1008.3
20260506133015 20 0.0 6.4 0.00 0.00 0.00 58 1008.1
20260506130015 18 203 1.6 6.4 0.00 0.00 0.00 58 1007.7
20260506123017 18 225 1.6 11.3 0.00 0.00 0.00 60 1008.0
20260506120036 18 0.0 4.8 0.00 0.00 0.00 60 1008.5
20260506113015 18 0.0 11.3 0.00 0.00 0.00 61 1008.0
20260506110015 17 0.0 9.7 0.00 0.00 0.00 60 1007.9
20260506103015 17 0.0 4.8 0.00 0.00 0.00 60 1007.7
20260506100035 18 0.0 6.4 0.00 0.00 0.00 58 1007.6
20260506093015 18 0.0 9.7 0.00 0.00 0.00 57 1007.7
20260506090018 18 0.0 8.0 0.00 0.00 0.00 55 1007.8
20260506083017 18 0.0 6.4 0.00 0.00 0.00 52 1007.9
20260506073017 19 0.0 8.0 0.00 0.00 0.00 50 1008.0
20260506043016 20 0.0 4.8 0.00 0.00 0.00 42 1008.7
20260506040016 21 0.0 4.8 0.00 0.00 0.00 39 1008.6
20260506033017 22 225 1.6 11.3 0.00 0.00 0.00 35 1008.4
20260506030019 23 225 1.6 8.0 0.00 0.00 0.00 33 1008.4
20260506023016 23 225 1.6 4.8 0.00 0.00 0.00 31 1008.2
20260506020018 23 0.0 8.0 0.00 0.00 0.00 30 1008.1
20260506013017 23 0.0 6.4 0.00 0.00 0.00 28 1007.8
20260506010016 24 0.0 6.4 0.00 0.00 0.00 27 1007.5
20260506003016 25 225 1.6 11.3 0.00 0.00 0.00 26 1007.2
20260506000016 25 225 1.6 12.9 0.00 0.00 0.00 25 1006.9
20260505233038 25 248 3.2 14.5 0.00 0.00 0.00 25 1006.5
20260505230018 26 248 3.2 14.5 0.00 0.00 0.00 23 1006.2
20260505223016 26 248 1.6 12.9 0.00 0.00 0.00 24 1005.7
20260505220038 27 225 3.2 14.5 0.00 0.00 0.00 22 1005.3
20260505213036 27 225 3.2 16.1 0.00 0.00 0.00 23 1005.3
20260505210016 27 225 3.2 17.7 0.00 0.00 0.00 21 1005.0
20260505203116 28 225 4.8 24.1 0.00 0.00 0.00 22 1004.9
20260505200017 28 225 4.8 20.9 0.00 0.00 0.00 21 1005.7
20260505193037 28 225 4.8 19.3 0.00 0.00 0.00 23 1005.9
20260505190016 28 225 4.8 20.9 0.00 0.00 0.00 22 1006.2
20260505183016 28 225 4.8 16.1 0.00 0.00 0.00 22 1006.5
20260505180016 28 225 4.8 19.3 0.00 0.00 0.00 24 1006.9
20260505173016 28 225 3.2 17.7 0.00 0.00 0.00 25 1007.2
20260505170015 27 248 3.2 12.9 0.00 0.00 0.00 28 1007.4
20260505163037 27 203 3.2 16.1 0.00 0.00 0.00 29 1008.0
20260505153015 25 135 1.6 11.3 0.00 0.00 0.00 36 1008.8